Total_Precipitation_Accumulation
0.79 0.75 0.73 0.70 0.66 0.61 0.57 0.53 0.46 0.40 0.36 0.34 0.32 0.31 0.30 0.31 0.32 0.33 0.35 0.33 0.30 0.27 0.23 0.21 0.19 0.16 0.17 0.17 0.18 0.20 0.23 0.30 0.34 0.22 0.14 0.13 0.17 0.24 0.31 0.34 0.34 0.32 0.28
0.61 0.63 0.61 0.56 0.51 0.48 0.44 0.43 0.41 0.37 0.33 0.33 0.33 0.31 0.29 0.27 0.28 0.29 0.29 0.28 0.27 0.24 0.20 0.17 0.16 0.15 0.15 0.15 0.16 0.18 0.21 0.28 0.36 0.34 0.21 0.14 0.16 0.21 0.27 0.29 0.25 0.24 0.27
0.39 0.39 0.41 0.40 0.38 0.36 0.32 0.31 0.31 0.30 0.29 0.28 0.27 0.27 0.27 0.26 0.25 0.23 0.22 0.21 0.19 0.18 0.18 0.18 0.18 0.18 0.17 0.17 0.19 0.21 0.24 0.28 0.37 0.40 0.27 0.20 0.19 0.26 0.36 0.35 0.30 0.38 0.31
0.31 0.29 0.31 0.32 0.30 0.30 0.28 0.27 0.26 0.26 0.25 0.22 0.20 0.19 0.19 0.18 0.16 0.14 0.11 0.11 0.11 0.10 0.11 0.14 0.16 0.17 0.19 0.23 0.24 0.27 0.31 0.36 0.37 0.39 0.32 0.25 0.26 0.31 0.43 0.50 0.46 0.43 0.39
0.34 0.31 0.30 0.29 0.28 0.28 0.29 0.28 0.26 0.23 0.20 0.18 0.17 0.15 0.13 0.11 0.08 0.06 0.05 0.05 0.07 0.08 0.09 0.12 0.13 0.14 0.19 0.21 0.23 0.27 0.36 0.42 0.44 0.47 0.42 0.36 0.34 0.43 0.51 0.53 0.50 0.48 0.41
0.35 0.36 0.34 0.32 0.33 0.32 0.30 0.29 0.27 0.23 0.19 0.15 0.12 0.10 0.09 0.06 0.05 0.04 0.03 0.04 0.06 0.09 0.13 0.13 0.10 0.10 0.10 0.11 0.15 0.23 0.32 0.42 0.50 0.56 0.54 0.52 0.46 0.51 0.60 0.61 0.61 0.60 0.49
0.42 0.40 0.37 0.35 0.35 0.32 0.29 0.27 0.25 0.20 0.16 0.13 0.09 0.08 0.08 0.06 0.03 0.02 0.02 0.04 0.09 0.14 0.17 0.16 0.12 0.10 0.14 0.20 0.19 0.19 0.28 0.34 0.47 0.62 0.67 0.60 0.57 0.60 0.71 0.75 0.71 0.70 0.66
0.45 0.42 0.39 0.35 0.34 0.31 0.27 0.26 0.22 0.18 0.15 0.13 0.10 0.08 0.09 0.05 0.01 0.01 0.02 0.05 0.11 0.13 0.14 0.16 0.21 0.24 0.18 0.15 0.17 0.27 0.39 0.46 0.50 0.56 0.65 0.60 0.56 0.57 0.65 0.68 0.67 0.68 0.62
0.42 0.36 0.30 0.27 0.25 0.24 0.25 0.23 0.20 0.18 0.15 0.12 0.10 0.10 0.12 0.09 0.01 0.01 0.01 0.06 0.11 0.11 0.11 0.12 0.15 0.21 0.15 0.14 0.22 0.40 0.49 0.61 0.62 0.74 0.74 0.68 0.67 0.65 0.56 0.54 0.68 0.79 0.73
0.30 0.24 0.19 0.16 0.16 0.17 0.18 0.19 0.17 0.16 0.15 0.11 0.10 0.12 0.12 0.11 0.03 0.01 0.02 0.06 0.11 0.11 0.15 0.18 0.14 0.11 0.12 0.17 0.26 0.45 0.61 0.68 0.83 1.02 0.98 0.91 0.85 0.80 0.67 0.61 0.79 0.91 0.87
0.19 0.16 0.13 0.11 0.11 0.13 0.15 0.17 0.18 0.17 0.17 0.14 0.14 0.14 0.12 0.07 0.03 0.01 0.01 0.05 0.09 0.13 0.19 0.24 0.24 0.17 0.16 0.19 0.30 0.50 0.67 0.70 0.90 1.17 1.06 0.88 0.81 0.74 0.73 0.74 0.80 0.84 0.81
0.15 0.14 0.13 0.10 0.08 0.09 0.17 0.20 0.18 0.19 0.19 0.19 0.18 0.16 0.12 0.09 0.05 0.02 0.01 0.02 0.04 0.16 0.30 0.30 0.29 0.25 0.22 0.28 0.41 0.60 0.73 0.88 1.03 1.13 0.95 0.76 0.64 0.61 0.62 0.59 0.57 0.59 0.63
0.17 0.17 0.15 0.13 0.11 0.11 0.16 0.19 0.18 0.18 0.17 0.14 0.15 0.14 0.13 0.13 0.09 0.02 0.02 0.02 0.05 0.15 0.29 0.34 0.33 0.30 0.37 0.56 0.68 0.79 0.91 1.06 1.09 0.96 0.82 0.71 0.58 0.52 0.49 0.48 0.47 0.50 0.54
0.17 0.15 0.14 0.15 0.16 0.16 0.15 0.11 0.12 0.13 0.11 0.10 0.12 0.14 0.17 0.17 0.10 0.06 0.07 0.09 0.11 0.17 0.26 0.39 0.47 0.50 0.64 0.84 0.97 1.06 1.13 1.14 0.99 0.87 0.75 0.65 0.53 0.48 0.46 0.42 0.44 0.46 0.49
0.15 0.14 0.13 0.12 0.14 0.19 0.16 0.07 0.05 0.06 0.03 0.05 0.08 0.11 0.16 0.17 0.08 0.06 0.09 0.12 0.15 0.20 0.25 0.40 0.56 0.62 0.76 0.91 1.02 1.07 1.09 1.07 0.98 0.85 0.74 0.64 0.55 0.50 0.47 0.41 0.40 0.42 0.45
0.17 0.14 0.09 0.08 0.10 0.12 0.16 0.15 0.05 0.01 0.00 0.01 0.03 0.05 0.07 0.09 0.07 0.06 0.08 0.12 0.17 0.23 0.30 0.50 0.63 0.65 0.74 0.83 0.92 0.99 0.98 0.93 0.86 0.80 0.75 0.69 0.60 0.52 0.49 0.44 0.41 0.41 0.44
0.11 0.10 0.05 0.04 0.06 0.08 0.12 0.19 0.20 0.11 0.03 0.02 0.02 0.03 0.05 0.06 0.07 0.06 0.07 0.12 0.16 0.25 0.37 0.57 0.67 0.73 0.78 0.81 0.82 0.85 0.90 0.89 0.81 0.74 0.70 0.63 0.55 0.49 0.46 0.43 0.38 0.37 0.38
0.05 0.03 0.03 0.04 0.03 0.04 0.06 0.09 0.14 0.21 0.21 0.16 0.07 0.04 0.04 0.07 0.09 0.09 0.10 0.13 0.19 0.26 0.41 0.56 0.67 0.73 0.77 0.79 0.77 0.73 0.76 0.78 0.72 0.64 0.59 0.54 0.49 0.46 0.41 0.39 0.35 0.28 0.27
0.04 0.04 0.03 0.02 0.02 0.02 0.03 0.05 0.08 0.12 0.17 0.19 0.17 0.10 0.07 0.10 0.13 0.14 0.16 0.18 0.24 0.29 0.38 0.50 0.60 0.65 0.66 0.66 0.67 0.65 0.65 0.67 0.63 0.57 0.53 0.49 0.45 0.41 0.37 0.30 0.26 0.18 0.21
0.03 0.01 0.01 0.02 0.01 0.01 0.02 0.03 0.06 0.11 0.12 0.14 0.16 0.14 0.12 0.22 0.32 0.29 0.23 0.22 0.23 0.26 0.34 0.45 0.54 0.56 0.55 0.51 0.49 0.49 0.50 0.50 0.50 0.48 0.47 0.45 0.41 0.36 0.29 0.24 0.21 0.21 0.22
0.02 0.01 0.00 0.01 0.01 0.01 0.01 0.01 0.04 0.07 0.10 0.12 0.10 0.09 0.16 0.26 0.36 0.35 0.31 0.29 0.29 0.30 0.32 0.36 0.42 0.45 0.44 0.40 0.36 0.34 0.34 0.37 0.38 0.38 0.39 0.38 0.33 0.29 0.23 0.18 0.16 0.13 0.13
0.01 0.01 0.01 0.01 0.00 0.00 0.01 0.01 0.02 0.03 0.05 0.09 0.10 0.10 0.16 0.22 0.29 0.33 0.34 0.35 0.37 0.36 0.33 0.33 0.34 0.36 0.35 0.33 0.30 0.27 0.26 0.27 0.28 0.31 0.33 0.32 0.28 0.23 0.17 0.12 0.09 0.08 0.07
0.01 0.01 0.01 0.00 0.00 0.00 0.01 0.01 0.02 0.02 0.03 0.05 0.07 0.11 0.15 0.22 0.28 0.35 0.39 0.38 0.37 0.37 0.33 0.29 0.32 0.35 0.32 0.28 0.25 0.22 0.21 0.21 0.21 0.24 0.31 0.32 0.26 0.19 0.13 0.09 0.06 0.05 0.04
0.00 0.00 0.00 0.00 0.00 0.00 0.01 0.01 0.01 0.01 0.01 0.03 0.05 0.08 0.12 0.18 0.23 0.27 0.33 0.36 0.37 0.37 0.37 0.37 0.37 0.36 0.31 0.25 0.21 0.19 0.18 0.19 0.19 0.23 0.27 0.29 0.24 0.16 0.10 0.07 0.05 0.04 0.04
0.00 0.00 0.00 0.00 0.00 0.00 0.00 0.01 0.01 0.01 0.01 0.02 0.03 0.05 0.09 0.11 0.13 0.16 0.21 0.26 0.29 0.32 0.34 0.36 0.35 0.32 0.27 0.21 0.17 0.14 0.16 0.16 0.14 0.18 0.25 0.28 0.21 0.14 0.09 0.06 0.05 0.04 0.04
0.00 0.00 0.00 0.00 0.00 0.00 0.00 0.00 0.01 0.01 0.01 0.01 0.02 0.03 0.05 0.07 0.09 0.12 0.14 0.17 0.19 0.23 0.27 0.32 0.32 0.23 0.15 0.11 0.11 0.10 0.08 0.06 0.05 0.08 0.18 0.23 0.17 0.12 0.12 0.09 0.05 0.04 0.05